Date,TemperatureHighF,TemperatureAvgF,TemperatureLowF,DewpointHighF,DewpointAvgF,DewpointLowF,HumidityHigh,HumidityAvg,HumidityLow,PressureMaxIn,PressureMinIn,WindSpeedMaxMPH,WindSpeedAvgMPH,GustSpeedMaxMPH,PrecipitationSumIn
2014-1-1,49.8,28.9,21.4,31.0,22.2,18.6,90,78,38,30.18,29.85,12,1,13,0.00
2014-1-2,42.8,31.0,14.2,42.3,27.5,4.2,98,87,64,30.06,29.65,24,4,24,2.40
2014-1-3,23.9,16.1,8.4,8.6,5.2,0.1,77,62,45,30.30,30.06,13,2,13,0.00
2014-1-4,44.6,27.0,12.4,20.3,13.8,6.6,82,60,34,30.12,29.91,23,2,23,0.00
2014-1-5,57.2,42.7,25.5,49.5,35.8,19.5,97,78,51,29.97,29.47,33,6,33,0.17
2014-1-6,29.8,9.4,-2.2,28.8,4.2,-7.6,96,79,74,30.24,29.65,25,7,25,0.00
2014-1-7,15.8,5.1,-5.1,8.0,-4.8,-10.4,77,65,45,30.36,30.21,24,3,24,2.57
2014-1-8,38.5,21.7,5.5,17.8,6.0,-9.9,73,51,40,30.36,30.21,13,1,13,2.57
2014-1-9,45.5,33.7,24.8,32.8,23.2,17.6,87,67,42,30.33,30.12,6,0,6,2.66
2014-1-10,58.8,47.2,36.1,51.4,43.3,32.8,96,87,69,30.12,29.74,15,2,15,0.04
2014-1-11,58.3,50.9,34.5,54.7,43.9,0.0,100,79,46,29.76,29.50,26,7,29,0.45
2014-1-12,53.1,39.1,28.6,37.7,30.2,25.2,98,73,41,30.00,29.76,14,3,17,0.04
2014-1-13,51.3,42.5,31.8,46.6,37.9,26.4,98,85,51,29.91,29.68,24,4,24,3.15
2014-1-14,51.8,44.3,36.3,45.2,36.2,25.1,98,76,39,29.82,29.65,15,4,15,0.05
2014-1-15,39.0,32.0,21.9,33.4,20.3,11.4,93,64,41,29.97,29.82,13,3,13,0.05
2014-1-16,40.1,30.2,18.5,20.5,16.4,12.4,85,59,36,29.94,29.68,19,4,19,3.15
2014-1-17,39.0,29.5,20.1,32.9,20.5,6.7,87,69,50,29.97,29.68,20,5,20,3.15
2014-1-18,36.7,27.0,17.8,16.5,12.9,7.2,80,57,41,29.97,29.71,16,5,16,0.05
2014-1-19,42.3,36.7,34.0,31.5,24.3,13.8,80,62,42,29.91,29.71,18,6,18,0.05
2014-1-20,55.8,41.3,29.3,28.8,23.3,20.1,76,50,32,29.82,29.68,17,4,17,0.00
2014-1-21,36.1,26.0,10.0,32.2,19.0,-1.1,93,75,59,29.97,29.56,13,3,14,0.00
2014-1-22,25.0,13.0,0.9,7.4,-0.7,-9.8,60,54,42,30.03,29.85,11,2,11,0.04
2014-1-23,19.9,13.4,3.7,9.7,-2.6,-15.7,68,49,38,30.41,29.97,16,4,16,0.00
2014-1-24,26.8,12.2,1.0,5.0,-7.2,-18.1,56,41,35,30.44,29.85,22,4,22,0.00
2014-1-25,37.4,27.9,19.8,29.5,12.0,0.2,86,53,37,29.85,29.50,28,8,28,0.00
2014-1-26,54.7,32.6,7.2,29.4,12.7,-8.8,65,44,37,29.79,29.50,23,5,25,0.04
2014-1-27,46.2,21.2,12.6,27.6,-1.3,-5.2,48,37,32,30.12,29.59,12,4,13,0.04
2014-1-28,16.2,11.6,6.3,-1.9,-6.0,-11.0,46,44,43,30.18,30.06,13,3,13,0.04
2014-1-29,25.5,11.2,0.0,2.3,-7.9,-16.8,48,41,34,30.18,30.09,10,1,10,0.04
2014-1-30,40.8,22.2,2.5,11.8,-0.6,-15.8,63,37,30,30.12,29.85,17,3,17,0.04
2014-1-31,46.6,34.8,22.3,19.7,14.3,4.2,61,44,31,30.03,29.88,13,2,13,0.00
2014-2-1,64.4,45.9,29.7,36.7,26.3,17.3,73,49,23,29.94,29.79,23,4,23,0.00
2014-2-2,54.5,41.9,34.0,51.6,38.4,28.0,98,88,73,29.94,29.76,12,2,12,0.00
2014-2-3,34.0,32.3,30.9,33.5,31.5,30.2,98,97,90,30.09,29.76,15,1,15,3.15
2014-2-4,39.2,33.7,30.6,35.7,32.7,30.1,98,96,84,30.09,29.68,11,2,11,0.00
2014-2-5,42.1,31.2,24.1,41.6,27.9,17.0,98,88,74,30.15,29.59,18,4,20,0.00
2014-2-6,32.5,26.6,23.2,21.8,18.5,16.1,86,72,54,30.24,30.12,7,2,7,0.00
2014-2-7,30.9,25.8,21.9,20.0,17.2,15.2,77,70,56,30.24,30.09,8,2,8,3.28
2014-2-8,41.7,35.7,23.4,31.2,28.2,17.8,86,74,60,30.12,29.94,7,1,7,3.28
2014-2-9,38.3,33.9,29.3,36.9,31.4,25.5,98,91,84,30.00,29.88,11,1,13,0.00
2014-2-10,33.1,27.0,17.8,25.5,17.4,8.0,87,68,45,30.12,29.97,10,2,10,0.00
2014-2-11,34.7,23.9,14.4,13.4,9.7,6.9,77,56,38,30.21,30.09,11,4,11,0.00
2014-2-12,41.4,29.5,19.8,29.0,17.2,8.1,88,61,41,30.09,29.71,8,2,8,0.00
2014-2-13,46.0,34.2,26.8,29.1,20.4,6.8,93,61,25,29.71,29.59,16,3,16,0.00
2014-2-14,54.9,39.2,25.9,38.6,26.7,14.1,97,63,37,29.68,29.50,18,4,20,0.00
2014-2-15,37.4,27.8,20.3,35.3,17.7,12.6,96,67,47,29.97,29.50,18,4,18,3.28
2014-2-16,47.8,34.4,23.2,30.2,25.2,19.6,89,71,47,30.06,29.82,12,2,15,3.28
2014-2-17,61.9,41.1,23.9,48.1,30.4,19.9,95,69,35,30.06,29.68,24,5,24,3.28
2014-2-18,62.2,45.9,29.3,36.4,28.6,22.5,96,56,26,30.09,29.76,15,3,15,0.00
2014-2-19,64.8,54.1,42.6,54.8,41.6,25.7,98,66,31,29.94,29.68,19,5,23,0.00
2014-2-20,71.8,57.9,40.1,55.0,46.1,30.0,94,66,47,29.88,29.59,28,6,35,3.28
2014-2-21,64.8,43.5,29.5,55.4,30.9,16.8,98,66,29,29.97,29.59,28,5,28,0.00
2014-2-22,63.7,44.0,25.7,32.5,23.7,17.6,85,51,24,30.00,29.82,15,2,15,0.00
2014-2-23,67.1,48.5,34.5,33.5,27.9,19.7,88,47,27,30.00,29.79,14,3,14,0.00
2014-2-24,43.5,34.1,23.5,27.9,11.7,5.9,78,40,28,30.12,29.97,11,2,12,3.28
2014-2-25,44.4,35.0,25.2,20.3,14.8,11.4,62,44,33,30.03,29.85,11,2,11,0.00
2014-2-26,32.9,26.8,18.1,17.5,9.2,1.3,71,48,32,29.97,29.76,13,3,14,0.00
2014-2-27,38.5,25.7,15.6,12.9,5.7,-0.7,57,43,31,29.94,29.74,19,4,19,0.00
2014-2-28,47.8,26.2,16.2,16.3,6.8,-0.5,51,44,28,30.00,29.88,8,1,8,0.00
2014-3-1,63.0,49.1,31.5,36.8,30.7,15.4,76,51,34,30.03,29.91,22,4,22,0.00
2014-3-2,63.9,45.8,31.8,51.2,39.4,31.3,98,80,57,30.00,29.82,23,2,24,3.12
2014-3-3,31.8,23.6,16.3,31.3,18.1,10.6,98,80,57,30.15,29.82,9,0,9,0.00
2014-3-4,34.0,30.9,15.8,29.0,24.8,10.5,93,79,59,30.12,29.97,0,0,0,3.28
2014-3-5,43.0,33.8,28.4,32.7,28.1,21.6,98,80,59,30.06,29.97,8,1,8,0.00
2014-3-6,52.3,38.5,27.3,28.7,22.4,15.7,74,53,38,30.03,29.85,8,2,10,0.00
2014-3-7,63.1,43.0,27.3,40.0,31.3,24.0,89,67,36,29.88,29.76,10,1,10,0.00
2014-3-8,65.5,46.9,29.5,41.4,32.1,27.2,94,62,30,29.97,29.85,14,2,15,0.00
2014-3-9,58.3,45.5,33.3,38.8,30.6,23.0,82,58,33,30.09,29.91,11,2,11,3.28
2014-3-10,68.9,45.5,28.6,44.0,31.6,24.0,85,62,26,29.94,29.71,19,3,20,0.00
2014-3-11,75.0,60.0,37.0,45.7,37.1,27.3,86,48,22,29.74,29.53,17,4,17,0.00
2014-3-12,62.4,47.3,29.8,59.8,40.2,20.9,98,77,54,29.85,29.26,28,6,30,0.00
2014-3-13,44.2,31.3,22.3,24.3,12.5,7.3,80,48,28,30.06,29.79,15,3,15,0.00
2014-3-14,64.9,44.3,24.8,31.3,23.3,12.5,72,47,27,30.03,29.79,29,5,29,0.00
2014-3-15,66.7,53.8,39.4,36.2,30.3,21.5,61,42,24,29.97,29.85,20,4,25,3.28
2014-3-16,47.7,39.7,32.4,38.1,31.8,25.5,98,76,42,29.88,29.62,23,5,25,3.28
2014-3-17,79.9,32.0,27.3,79.9,30.1,26.3,100,93,79,29.74,29.62,12,3,12,0.00
2014-3-18,62.6,46.0,34.5,48.6,39.8,34.0,98,81,50,29.88,29.68,10,2,12,0.00
2014-3-19,62.2,50.4,37.2,46.3,41.9,34.1,98,75,47,29.91,29.76,28,6,28,0.00
2014-3-20,57.9,43.8,30.7,35.6,26.7,18.7,89,55,26,30.03,29.88,13,2,13,0.00
2014-3-21,68.5,49.4,27.9,34.9,26.8,21.9,86,49,22,29.97,29.79,20,3,20,0.00
2014-3-22,66.6,57.1,43.3,36.4,29.1,25.6,52,35,25,29.94,29.79,12,3,12,3.28
2014-3-23,51.4,42.1,31.5,30.0,24.2,16.0,65,50,36,30.09,29.94,15,4,15,3.28
2014-3-24,50.4,36.8,22.3,20.0,14.4,9.9,63,41,28,30.15,29.91,10,2,10,0.00
2014-3-25,39.7,33.7,27.0,29.2,18.8,8.4,78,55,37,30.03,29.79,23,4,23,0.00
2014-3-26,47.8,30.8,18.1,17.9,11.0,6.6,66,44,28,30.21,30.00,12,2,12,0.00
2014-3-27,65.3,46.6,25.2,29.3,20.7,11.2,66,39,23,30.09,29.79,25,5,25,3.28
2014-3-28,68.0,58.3,48.9,55.0,48.8,28.7,91,72,35,29.88,29.76,22,5,23,3.28
2014-3-29,55.4,46.1,34.7,54.8,45.1,33.6,98,96,90,29.97,29.62,17,2,18,3.28
2014-3-30,57.6,42.4,34.2,35.1,29.0,23.6,98,63,30,30.06,29.91,15,4,17,3.28
2014-3-31,72.1,47.4,28.0,39.2,30.9,25.5,92,60,23,30.06,29.88,8,1,9,3.28
2014-4-1,79.7,60.6,43.2,44.7,40.1,34.2,87,53,21,29.97,29.85,24,3,24,3.28
2014-4-2,81.3,61.4,41.9,54.7,47.1,38.8,92,63,32,29.97,29.85,12,1,12,3.28
2014-4-3,80.2,66.0,57.9,61.8,57.2,51.5,98,76,42,29.91,29.68,24,4,24,3.28
2014-4-4,68.7,58.9,43.0,61.0,53.8,33.9,98,84,63,29.91,29.59,26,4,26,3.28
2014-4-5,58.3,47.0,39.0,36.1,29.9,25.1,87,53,34,30.06,29.88,13,2,13,0.00
2014-4-6,70.2,52.4,33.4,44.3,32.9,26.1,78,50,26,30.00,29.79,13,3,13,3.28
2014-4-7,67.5,57.4,50.0,60.3,51.3,42.4,98,81,61,29.82,29.38,30,6,30,3.28
2014-4-8,63.3,52.6,44.4,43.0,39.3,33.8,85,63,34,29.74,29.59,26,4,26,3.28
2014-4-9,66.2,51.8,40.5,45.7,35.8,26.0,98,62,25,30.00,29.74,17,2,17,3.28
2014-4-10,75.7,56.1,33.6,43.9,35.0,30.7,91,52,24,30.09,29.88,23,5,25,3.28
2014-4-11,77.0,66.1,57.0,50.9,42.0,33.4,68,42,32,30.03,29.91,23,5,23,3.28
2014-4-12,80.6,64.4,46.0,55.7,48.2,43.9,94,61,31,30.09,29.88,20,2,20,3.28
2014-4-13,84.0,69.1,54.3,53.6,47.4,40.7,74,49,24,29.97,29.76,33,5,33,3.28
2014-4-14,73.0,68.4,61.5,58.3,51.1,47.6,84,55,42,29.79,29.62,36,8,36,3.28
2014-4-15,61.5,39.9,32.2,59.5,32.0,19.5,97,75,47,30.09,29.62,15,3,18,3.28
2014-4-16,58.1,39.6,26.2,26.7,21.6,17.0,80,52,27,30.24,30.06,16,3,16,3.28
2014-4-17,70.0,50.8,30.9,37.2,29.3,21.8,86,50,23,30.24,30.09,11,2,11,3.28
2014-4-18,72.0,56.0,41.5,43.9,38.4,29.4,76,55,31,30.21,28.97,6,1,7,0.00
2014-4-19,74.3,60.4,46.8,43.6,36.7,30.9,83,46,23,30.09,30.00,18,3,20,0.00
2014-4-20,77.7,59.5,40.3,45.3,38.2,32.0,84,50,23,30.15,29.97,11,1,11,0.00
2014-4-21,84.2,63.2,43.7,50.3,43.0,38.5,89,54,23,30.03,29.82,11,2,12,0.00
2014-4-22,75.9,64.6,56.3,60.6,49.9,29.7,82,61,34,29.82,29.68,13,2,13,0.00
2014-4-23,66.4,53.3,38.8,34.2,29.0,25.9,70,41,25,29.97,29.79,10,2,10,0.00
2014-4-24,78.8,56.5,37.4,43.1,35.6,30.2,84,51,22,29.94,29.71,9,1,9,0.00
2014-4-25,68.4,60.0,48.6,60.5,51.7,37.4,98,76,46,29.88,29.59,22,4,22,0.00
2014-4-26,81.5,59.3,40.3,54.1,43.0,34.5,98,64,20,29.91,29.82,12,2,12,0.00
2014-4-27,73.4,52.1,44.8,57.3,46.2,42.4,93,82,48,29.88,29.76,23,1,29,0.00
2014-4-28,77.9,66.4,61.5,67.3,60.2,53.9,98,81,49,29.82,29.62,27,3,27,0.00
2014-4-29,81.9,66.7,55.4,66.5,56.7,0.0,98,75,35,29.82,29.56,26,3,26,0.00
2014-4-30,61.9,58.1,54.1,59.4,56.8,51.9,98,95,88,29.82,29.68,11,1,11,0.00
2014-5-1,54.1,50.9,46.0,53.6,47.3,38.4,98,87,71,29.88,29.79,8,2,8,0.00
2014-5-2,69.6,54.3,39.4,46.4,39.4,34.6,96,62,33,29.88,29.76,15,2,15,0.00
2014-5-3,74.1,56.3,38.7,47.2,39.2,35.7,93,58,26,29.91,29.79,24,4,24,0.00
2014-5-4,82.0,62.9,43.5,50.4,45.2,40.8,93,59,25,29.94,29.82,20,3,22,0.00
2014-5-5,87.1,68.1,50.0,55.7,48.8,42.7,92,56,23,29.91,29.74,115,3,115,0.00
2014-5-6,86.7,69.1,52.2,57.8,51.0,43.8,92,58,24,29.91,29.76,13,2,13,0.00
2014-5-7,87.3,69.3,51.6,59.7,52.3,46.8,95,61,27,30.00,29.88,14,2,14,0.00
2014-5-8,87.6,71.5,55.6,58.5,52.5,46.5,87,55,29,30.09,29.94,21,3,21,0.00
2014-5-9,79.0,69.2,60.3,66.3,58.8,53.8,86,70,48,30.00,29.88,18,3,18,0.00
2014-5-10,78.4,65.8,60.1,67.7,61.6,58.8,98,87,67,30.00,29.88,17,1,17,0.00
2014-5-11,87.1,67.2,56.8,68.3,60.9,56.3,98,83,43,30.06,29.97,9,1,9,0.00
2014-5-12,89.1,73.0,59.5,69.2,63.5,59.0,98,75,39,30.09,29.97,15,2,15,0.00
2014-5-13,86.9,71.9,60.6,70.5,63.9,58.0,98,79,46,30.06,29.97,22,2,24,0.00
2014-5-14,87.1,78.1,34.2,68.3,61.1,0.0,98,58,39,30.00,29.82,17,4,17,0.00
2014-5-15,64.9,54.3,51.4,62.2,48.9,43.3,98,83,63,30.00,29.82,15,3,17,0.00
2014-5-16,61.7,50.2,42.1,52.7,44.2,36.2,98,81,48,30.03,29.91,22,2,22,0.00
2014-5-17,62.6,49.9,38.5,49.8,41.8,37.3,98,77,44,30.12,29.97,9,1,9,0.00
2014-5-18,69.8,52.2,39.2,47.7,39.5,36.1,98,69,32,30.18,30.09,7,1,7,0.00
2014-5-19,76.8,65.5,41.2,49.6,46.1,38.8,94,53,31,30.21,30.03,8,2,8,0.00
2014-5-20,84.7,66.4,50.4,59.7,51.5,46.1,95,64,28,30.12,29.94,20,3,20,0.00
2014-5-21,85.1,72.7,60.4,64.5,58.2,51.0,90,61,46,30.06,29.91,23,5,34,0.00
2014-5-22,79.9,69.6,62.1,70.4,66.7,61.5,98,91,65,30.00,29.91,13,1,13,0.00
2014-5-23,79.9,67.4,55.6,65.7,56.3,44.8,98,72,32,30.06,29.97,11,1,11,0.00
2014-5-24,85.5,68.2,47.8,57.8,50.5,45.2,98,59,32,30.12,30.00,10,1,10,0.00
2014-5-25,82.0,70.3,54.5,61.1,52.9,41.8,92,57,37,30.09,30.03,6,0,229,0.00
2014-5-26,87.1,70.1,56.5,69.6,62.6,55.9,98,80,43,30.12,29.97,15,2,15,0.00
2014-5-27,87.3,71.9,63.0,70.6,64.9,59.4,98,81,47,30.06,29.94,14,2,14,0.00
2014-5-28,88.2,71.7,60.1,70.1,63.3,59.5,98,78,42,30.03,29.91,23,1,23,0.00
2014-5-29,91.0,71.5,59.7,70.2,63.9,59.2,98,80,39,30.03,29.91,14,1,14,0.00
2014-5-30,89.2,73.8,61.5,69.7,65.2,60.4,98,78,39,30.09,29.97,10,1,10,0.00
2014-5-31,86.5,72.2,61.7,66.5,58.5,48.4,98,68,28,30.09,29.97,10,1,10,0.00
2014-6-1,89.1,73.4,59.7,70.4,62.7,56.9,97,71,44,30.12,30.00,13,2,13,0.00
2014-6-2,87.3,72.6,60.8,66.4,60.8,57.0,96,69,41,30.15,29.97,10,2,10,0.00
2014-6-3,88.0,74.1,65.5,69.2,63.1,57.8,91,70,44,30.06,29.91,11,2,228,0.00
2014-6-4,87.1,74.0,62.2,72.0,67.6,61.7,98,82,53,29.94,29.74,14,3,15,0.00
2014-6-5,77.9,69.8,61.2,70.7,64.8,60.0,98,85,59,29.88,29.74,10,1,10,0.00
2014-6-6,83.8,67.7,55.9,65.1,57.2,52.1,98,74,37,29.94,29.85,10,1,10,0.00
2014-6-7,87.6,70.8,55.9,63.2,58.5,54.1,98,69,35,29.97,29.79,8,1,8,0.00
2014-6-8,81.7,71.5,65.3,66.0,61.1,56.9,90,71,48,29.94,29.76,20,4,20,0.00
2014-6-9,79.5,68.8,59.2,63.3,60.4,56.6,95,76,49,29.94,29.82,8,1,8,0.00
2014-6-10,84.6,66.3,63.9,66.9,64.0,62.3,98,93,50,29.88,29.76,13,1,13,0.00
2014-6-11,82.9,71.6,64.0,70.4,65.3,62.1,98,82,57,29.85,29.74,15,1,15,0.00
2014-6-12,86.7,71.9,62.8,69.3,63.7,58.5,98,78,42,29.88,29.74,10,0,10,0.00
2014-6-13,83.7,70.6,60.8,69.8,62.2,57.9,98,77,45,29.94,29.79,9,0,9,0.00
2014-6-14,82.9,66.1,51.6,58.0,51.3,45.3,98,64,31,30.06,29.91,11,2,12,0.00
2014-6-15,91.8,71.9,53.1,68.5,59.2,51.1,96,68,38,30.09,29.97,13,2,13,0.00
2014-6-16,93.7,77.2,63.1,70.4,63.7,55.2,98,68,30,30.15,30.03,12,1,12,0.00
2014-6-17,93.9,78.1,63.3,69.9,65.3,61.7,98,69,37,30.12,29.97,15,2,15,0.00
2014-6-18,94.6,79.2,65.8,72.0,65.9,58.1,98,68,31,30.12,29.97,14,2,14,0.00
2014-6-19,93.2,79.0,67.1,72.5,67.1,60.6,96,71,36,30.12,29.97,15,2,15,0.00
2014-6-20,89.8,73.5,65.1,73.1,68.1,64.5,98,85,49,30.03,29.88,10,1,11,0.00
2014-6-21,87.1,76.1,68.7,74.6,70.0,62.9,98,82,56,29.94,29.85,13,1,13,0.00
2014-6-22,89.2,75.6,64.8,73.2,65.8,59.1,98,76,41,29.94,29.82,8,1,8,0.00
2014-6-23,91.2,74.8,62.6,73.0,65.8,58.5,98,77,43,29.97,29.85,24,2,24,0.00
2014-6-24,87.1,76.0,66.6,76.3,67.6,62.9,96,77,50,30.00,29.85,15,2,15,0.00
2014-6-25,80.2,71.9,69.8,71.2,67.5,62.8,98,86,69,29.97,29.85,14,3,14,0.00
2014-6-26,92.3,77.0,64.4,70.9,64.4,58.2,98,69,34,30.03,29.91,8,1,8,0.00
2014-6-27,93.6,79.5,68.4,71.8,65.9,58.3,96,67,33,30.03,29.94,8,1,8,0.00
2014-6-28,89.1,74.2,67.6,75.3,68.6,64.8,98,84,51,30.15,30.00,10,1,10,0.00
2014-6-29,87.6,74.4,66.2,73.6,69.4,65.1,98,86,57,30.12,30.00,15,1,15,0.00
2014-6-30,87.4,76.2,68.7,74.2,70.4,67.8,98,84,60,30.03,29.85,10,2,10,0.00
2014-7-1,93.9,81.2,71.1,74.2,70.1,65.5,98,72,43,29.91,29.79,16,3,16,0.00
2014-7-2,77.9,71.1,67.5,70.9,66.8,63.1,98,87,71,29.94,29.82,58,2,58,0.00
2014-7-3,83.7,72.0,66.2,66.0,56.3,47.2,95,61,32,30.06,29.91,14,2,14,0.00
2014-7-4,81.3,67.8,56.3,59.0,50.4,42.2,94,59,27,30.21,30.03,14,2,14,0.00
2014-7-5,87.3,69.5,50.9,57.5,51.5,47.8,93,58,29,30.21,30.03,10,2,10,0.00
2014-7-6,90.5,73.4,58.5,83.1,56.5,51.9,100,62,29,30.09,29.91,15,3,17,0.00
2014-7-7,93.0,77.8,62.4,65.1,57.6,50.6,90,55,27,29.97,29.82,20,5,20,0.00
2014-7-8,89.4,79.4,71.2,73.2,65.3,56.1,87,63,41,29.88,29.79,20,6,24,0.00
2014-7-9,89.6,78.2,66.2,72.4,63.4,53.0,97,64,32,29.94,29.85,13,3,13,0.00
2014-7-10,92.1,75.1,61.2,68.4,59.5,50.5,98,65,25,30.06,29.94,8,1,10,0.00
2014-7-11,95.5,74.6,60.6,67.3,59.2,51.6,96,65,24,30.15,30.03,9,1,9,0.00
2014-7-12,95.9,76.2,59.4,66.7,58.2,46.3,95,61,21,30.15,30.00,10,1,12,0.00
2014-7-13,96.6,80.3,65.3,70.1,65.3,58.1,92,64,31,30.09,29.88,16,3,16,0.00
2014-7-14,87.4,76.7,69.8,76.2,70.2,64.9,98,81,65,29.97,29.79,18,3,18,0.00
2014-7-15,81.3,71.6,61.3,71.4,61.3,47.7,98,74,36,29.88,29.79,15,3,15,0.00
2014-7-16,80.6,65.6,54.9,57.4,51.5,44.9,98,65,32,29.97,29.85,9,1,9,0.00
2014-7-17,81.7,70.1,52.9,59.8,53.4,47.5,97,59,33,30.06,29.94,11,2,11,0.00
2014-7-18,72.1,64.3,59.4,64.6,61.0,55.8,98,89,70,30.09,29.97,8,1,8,0.00
2014-7-19,79.2,68.6,62.6,70.3,65.4,62.0,98,90,67,30.06,29.94,8,1,10,0.00
2014-7-20,88.0,75.3,67.6,72.6,68.6,64.8,98,82,50,30.03,29.91,9,1,9,0.00
2014-7-21,92.5,76.3,64.9,73.1,68.1,62.7,98,79,40,30.06,29.97,8,1,8,0.00
2014-7-22,94.6,78.8,66.9,73.8,69.6,65.7,98,77,42,30.09,29.97,8,1,9,0.00
2014-7-23,90.9,76.7,68.9,77.6,70.9,64.6,98,84,50,30.06,29.88,23,2,24,0.00
2014-7-24,75.2,69.3,60.3,74.1,65.9,59.7,98,90,69,30.00,29.85,9,1,9,0.00
2014-7-25,81.1,67.9,58.6,64.9,60.3,55.4,98,79,44,30.06,29.91,9,1,9,0.00
2014-7-26,87.4,73.4,59.9,68.4,64.1,59.3,98,76,44,30.03,29.85,12,2,12,0.00
2014-7-27,87.4,74.6,68.2,77.8,70.5,65.8,98,88,62,30.00,29.74,20,3,20,0.00
2014-7-28,79.7,68.6,60.4,70.5,61.4,54.5,98,80,47,29.94,29.76,15,1,15,0.00
2014-7-29,75.4,64.0,56.5,59.9,53.8,46.5,96,73,41,30.03,29.91,12,1,12,0.00
2014-7-30,81.7,65.4,51.6,61.6,55.8,50.5,98,75,42,30.06,29.97,8,1,8,0.00
2014-7-31,84.2,69.0,55.9,65.6,57.9,50.9,98,73,34,30.06,29.97,6,1,6,0.00
2014-8-1,76.6,65.1,60.1,65.8,61.5,59.2,98,89,61,30.06,29.97,7,0,8,0.00
2014-8-2,85.6,72.9,63.9,68.9,62.3,54.5,98,73,38,30.09,29.97,9,1,9,0.00
2014-8-3,84.2,70.3,58.5,66.2,58.4,52.7,98,70,38,30.09,30.00,11,2,11,0.00
2014-8-4,85.8,77.4,61.9,64.6,59.5,55.7,91,56,40,30.09,29.97,11,2,12,0.00
2014-8-5,87.6,71.6,58.5,68.0,60.9,53.5,98,73,36,30.06,29.97,8,1,8,0.00
2014-8-6,89.6,72.9,62.4,73.1,65.9,61.5,98,81,42,30.00,29.91,10,1,10,0.00
2014-8-7,87.3,73.3,65.1,70.4,65.4,59.5,98,79,42,30.00,29.91,10,1,10,0.00
2014-8-8,81.7,71.8,66.9,74.1,69.0,64.9,98,91,68,30.00,29.91,6,1,7,0.00
2014-8-9,87.8,76.7,69.1,73.7,70.5,67.3,98,83,56,30.00,29.88,10,1,10,0.00
2014-8-10,87.1,76.0,69.8,76.7,71.5,68.6,98,87,62,29.97,29.88,10,1,11,0.00
2014-8-11,80.2,73.4,68.9,75.0,71.0,66.1,98,92,80,29.94,29.79,17,2,17,0.00
2014-8-12,84.0,73.6,62.6,73.2,65.1,55.4,98,77,43,29.94,29.79,23,3,24,0.00
2014-8-13,75.6,64.6,56.1,61.7,58.3,55.6,98,82,53,30.03,29.88,6,1,6,0.00
2014-8-14,82.2,68.1,55.6,65.9,59.0,55.0,98,76,44,30.06,29.91,10,2,10,0.00
2014-8-15,81.5,71.7,60.4,66.2,59.0,50.2,98,68,36,30.00,29.94,10,2,12,0.00
2014-8-16,84.6,70.1,56.7,67.4,61.1,55.7,98,76,44,30.03,29.91,10,1,10,0.00
2014-8-17,81.3,71.7,65.3,74.1,68.2,64.7,98,89,61,29.97,29.85,10,1,10,0.00
2014-8-18,85.3,74.3,68.2,71.8,69.4,66.6,98,86,59,29.85,29.79,15,4,15,0.00
2014-8-19,88.2,75.1,66.9,73.0,69.0,66.2,98,84,50,29.88,29.79,9,2,9,0.00
2014-8-20,91.2,75.8,68.4,75.0,69.8,64.1,98,84,51,30.03,29.82,18,2,18,0.00
2014-8-21,90.0,76.3,64.4,73.9,68.7,63.8,98,80,49,30.09,29.97,13,2,13,0.00
2014-8-22,90.9,79.1,68.4,75.3,71.2,67.8,98,79,50,30.06,29.91,15,3,15,0.00
2014-8-23,91.6,79.0,70.9,75.0,71.9,0.0,98,81,51,30.00,29.85,7,1,8,0.00
2014-8-24,91.8,78.8,71.4,75.7,71.7,64.6,98,81,41,30.00,29.88,8,1,8,0.00
2014-8-25,86.9,75.1,66.4,73.2,68.5,65.8,98,82,52,30.06,29.97,7,1,7,0.00
2014-8-26,85.8,74.4,64.2,69.7,63.3,50.8,98,72,34,30.12,29.97,8,1,8,0.00
2014-8-27,86.9,74.1,59.7,69.7,64.6,59.2,98,75,46,30.09,29.97,10,1,10,0.00
2014-8-28,90.0,76.3,65.8,72.8,68.3,64.9,98,79,46,30.03,29.91,10,1,10,0.00
2014-8-29,90.9,76.9,65.5,73.7,68.2,62.1,98,78,41,30.06,29.94,10,1,10,0.00
2014-8-30,90.7,77.5,65.3,72.8,66.4,61.3,98,73,39,30.09,29.97,12,2,12,0.00
2014-8-31,81.0,74.6,68.2,75.0,70.7,67.6,98,88,70,30.06,29.97,13,3,13,0.00
2014-9-1,88.9,78.0,69.6,71.9,67.8,61.2,97,74,41,30.06,29.91,19,4,19,0.00
2014-9-2,90.3,76.6,68.5,71.2,69.0,63.7,98,80,43,30.00,29.88,20,4,20,0.00
2014-9-3,83.8,73.9,67.1,73.2,69.3,66.5,98,87,63,30.06,29.94,6,1,6,0.00
2014-9-4,86.2,73.3,67.8,75.5,70.4,67.2,98,91,61,30.09,29.97,11,1,13,0.00
2014-9-5,84.4,73.6,66.2,75.5,69.6,65.6,98,89,61,30.12,29.97,13,1,13,0.00
2014-9-6,88.3,73.4,66.9,74.8,69.8,64.7,98,89,54,30.06,29.94,15,1,15,0.00
2014-9-7,71.8,68.1,66.0,69.5,63.8,61.1,95,86,71,30.09,29.97,11,4,11,0.00
2014-9-8,83.8,71.7,61.3,70.1,65.6,60.5,98,83,57,30.06,29.97,9,1,9,0.00
2014-9-9,86.7,73.7,63.9,71.8,65.7,58.1,98,79,41,30.09,29.97,12,1,14,0.00
2014-9-10,85.5,73.5,65.3,72.6,66.5,64.2,98,81,51,30.00,29.85,17,2,17,0.00
2014-9-11,82.8,75.6,69.3,74.1,69.9,67.3,98,83,66,30.00,29.88,15,3,15,0.00
2014-9-12,71.4,66.0,63.0,68.7,62.3,60.0,98,88,70,30.09,30.00,11,3,11,0.00
2014-9-13,66.4,61.8,56.5,62.0,57.6,53.2,98,87,68,30.21,30.00,10,2,10,0.00
2014-9-14,73.8,61.8,51.3,58.8,54.5,49.9,97,79,49,30.18,30.09,8,1,8,0.00
2014-9-15,77.5,63.0,51.4,65.4,58.0,50.9,98,85,49,30.15,30.03,8,1,8,0.00
2014-9-16,74.7,65.1,57.4,66.3,60.3,54.4,98,86,51,30.09,29.97,10,2,10,0.00
2014-9-17,73.6,62.6,55.9,58.0,54.5,49.4,98,78,45,30.03,29.91,10,1,10,0.00
2014-9-18,75.2,63.3,54.1,60.5,53.9,48.7,98,75,42,30.03,29.94,10,2,10,0.00
2014-9-19,81.9,63.7,50.9,61.1,55.7,49.8,98,78,40,30.09,30.03,10,1,10,0.00
2014-9-20,83.8,68.2,56.8,63.9,59.7,56.3,98,77,41,30.12,29.94,10,2,10,0.00
2014-9-21,81.1,67.7,55.9,68.3,60.3,46.7,98,79,46,29.97,29.82,17,3,17,0.00
2014-9-22,66.6,56.8,47.3,51.8,46.2,42.7,95,70,43,30.21,29.97,11,1,11,0.00
2014-9-23,70.9,55.6,42.6,53.5,45.9,41.1,98,74,38,30.24,30.15,13,2,13,0.00
2014-9-24,75.9,58.7,45.7,58.0,49.5,44.3,97,76,35,30.24,30.15,9,1,9,0.00
2014-9-25,79.7,63.7,50.5,60.2,55.3,49.5,98,77,45,30.21,30.09,10,1,10,0.00
2014-9-26,81.5,67.2,55.4,65.9,58.0,54.8,98,76,43,30.18,30.09,9,1,9,0.00
2014-9-27,80.1,67.0,56.8,65.3,58.4,53.0,98,77,41,30.15,30.03,7,1,7,0.00
2014-9-28,76.5,66.2,57.2,67.2,60.1,55.8,98,82,60,30.12,30.00,8,1,8,0.00
2014-9-29,82.8,67.1,57.7,67.9,59.5,55.1,98,80,41,30.03,29.85,12,1,12,0.00
2014-9-30,81.1,65.7,55.8,65.6,55.9,47.4,98,76,31,29.94,29.85,6,1,9,0.00
2014-10-1,82.6,64.1,51.4,62.1,54.3,48.2,98,76,32,29.97,29.85,10,1,10,0.00
2014-10-2,85.1,66.2,52.7,63.3,56.0,51.3,98,74,38,30.03,29.85,16,1,16,0.00
2014-10-3,75.7,67.0,54.0,66.4,59.9,51.6,96,79,53,29.88,29.74,24,5,24,0.00
2014-10-4,59.0,49.2,39.0,52.6,35.7,28.1,95,63,35,29.91,29.79,24,5,24,0.00
2014-10-5,64.4,48.4,33.6,42.8,34.6,30.2,94,64,29,29.94,29.76,18,3,18,0.00
2014-10-6,67.3,58.5,53.1,59.5,50.6,40.0,97,76,48,29.88,29.76,19,5,19,0.00
2014-10-7,69.6,61.9,50.7,63.8,58.6,49.9,98,90,71,29.94,29.76,15,4,22,0.00
2014-10-8,72.7,61.8,51.4,63.5,51.5,40.4,98,74,32,30.06,29.85,20,2,20,0.00
2014-10-9,70.9,57.9,46.9,63.2,54.9,46.4,98,91,61,30.12,29.97,10,1,10,0.00
2014-10-10,72.5,64.8,58.5,68.4,63.1,0.0,98,95,78,30.00,29.85,10,1,10,0.00
2014-10-11,66.4,57.6,54.0,65.8,56.4,53.4,98,96,84,30.06,29.85,8,1,8,0.00
2014-10-12,76.3,63.0,53.6,66.5,59.9,53.0,98,90,68,30.06,28.85,9,1,9,0.00
2014-10-13,79.2,69.4,63.0,66.6,61.6,55.7,98,78,52,30.03,29.79,22,3,22,0.00
2014-10-14,72.5,65.3,55.2,65.8,60.6,53.1,98,86,66,29.79,29.62,21,4,21,0.00
2014-10-15,63.1,56.4,52.9,54.2,52.2,45.5,98,87,58,29.79,29.71,24,4,24,0.00
2014-10-16,56.8,53.6,48.4,54.6,52.4,47.8,98,95,86,29.88,29.71,13,2,13,0.00
2014-10-17,75.4,57.7,41.9,57.4,50.0,41.4,98,79,42,29.88,29.71,20,3,20,0.00
2014-10-18,60.3,52.5,45.1,52.0,45.6,41.1,98,78,56,30.03,29.76,14,2,14,0.00
2014-10-19,61.7,50.9,41.5,43.7,40.0,36.0,90,68,41,30.18,30.00,10,2,10,0.00
2014-10-20,65.8,50.8,37.9,52.2,43.9,37.2,98,80,53,30.03,29.85,12,2,12,0.00
2014-10-21,63.7,51.5,40.6,53.2,41.7,36.3,98,73,41,30.06,29.85,14,2,14,0.00
2014-10-22,59.2,45.4,0.0,55.0,37.3,0.0,92,68,53,30.27,29.06,11,3,11,0.00
2014-10-23,0.0,0.0,0.0,0.0,0.0,0.0,0,0,100,30.24,29.03,0,0,0,0.00
2014-10-24,66.2,53.1,0.0,43.8,38.5,0.0,89,60,38,30.24,28.91,8,1,8,0.00
2014-10-25,71.8,52.0,37.0,52.6,44.9,0.0,97,80,47,30.12,28.85,12,2,12,0.00
2014-10-26,73.4,55.5,45.5,57.2,44.0,31.8,98,73,23,29.97,29.91,11,1,11,0.00
2014-10-27,81.0,60.0,43.3,62.1,50.5,40.5,95,74,36,30.00,29.91,14,2,14,0.00
2014-10-28,77.7,63.4,52.2,63.0,56.1,48.9,98,80,45,30.03,29.91,24,3,24,0.96
2014-10-29,63.1,52.4,39.0,53.3,43.1,29.2,98,76,30,30.09,29.97,15,2,15,1.62
2014-10-30,57.7,47.2,33.8,42.7,35.8,33.2,98,69,42,30.09,29.94,8,1,8,0.00
2014-10-31,56.7,47.7,35.6,45.1,38.0,34.0,97,73,45,29.97,29.79,20,2,23,0.25
2014-11-1,37.6,35.2,33.3,34.8,32.4,23.7,98,90,63,30.21,29.85,20,5,20,1.91
2014-11-2,50.2,34.4,24.4,28.0,23.6,19.9,93,68,35,30.36,30.18,10,2,10,1.91
2014-11-3,64.6,44.1,26.6,36.0,28.3,23.1,91,60,24,30.30,30.15,12,1,229,1.91
2014-11-4,68.7,50.0,35.4,42.5,34.6,29.0,88,60,28,30.21,30.03,14,2,14,1.91
2014-11-5,57.6,53.4,50.2,53.4,45.5,30.4,98,78,36,30.15,29.97,15,2,15,3.03
2014-11-6,60.4,53.7,41.5,55.0,49.7,29.7,98,88,41,30.00,29.79,31,5,31,0.13
2014-11-7,51.3,41.0,30.7,34.9,31.1,28.2,90,69,48,30.09,29.91,57,3,57,0.00
2014-11-8,59.5,43.9,29.1,43.2,31.5,27.4,96,67,35,29.94,29.79,15,2,15,0.00
2014-11-9,58.1,46.6,33.8,38.9,34.8,28.4,87,66,36,29.97,29.85,8,1,8,3.16
2014-11-10,66.7,46.2,30.6,46.0,32.7,26.6,94,65,33,29.97,29.79,12,2,13,0.00
2014-11-11,71.6,53.0,34.5,53.7,41.0,31.1,93,67,39,29.91,29.76,19,4,19,0.04
2014-11-12,48.0,37.8,35.6,46.0,32.7,27.5,98,82,71,30.15,29.91,17,3,17,0.08
2014-11-13,35.6,31.5,25.3,28.5,21.6,7.6,83,67,46,30.18,30.06,12,4,12,0.00
2014-11-14,32.9,26.4,18.5,12.9,9.6,6.8,73,49,40,30.21,30.12,10,2,11,0.00
2014-11-15,45.5,30.5,16.7,20.9,15.3,10.5,79,56,32,30.27,30.03,11,1,11,0.00
2014-11-16,42.6,39.9,32.7,41.8,32.9,18.9,97,77,53,30.09,29.74,172,1,172,0.42
2014-11-17,42.8,32.9,20.5,42.3,27.3,7.2,98,81,51,30.03,29.62,18,2,18,0.78
2014-11-18,28.0,21.2,14.5,13.7,6.4,2.0,77,53,37,30.15,29.97,17,3,17,0.00
2014-11-19,48.2,30.1,14.2,21.7,14.1,6.6,74,54,33,30.12,29.85,25,6,25,0.00
2014-11-20,43.7,36.0,22.8,23.1,17.6,10.7,70,48,31,30.12,29.91,20,4,20,0.00
2014-11-21,43.2,27.8,17.4,21.6,13.8,9.1,80,59,29,30.30,30.09,8,1,8,0.00
2014-11-22,60.8,40.1,22.8,30.3,23.5,13.9,77,55,29,30.21,29.97,17,2,17,0.00
2014-11-23,61.3,49.8,36.1,54.7,42.7,26.4,92,77,53,29.97,29.35,28,4,28,0.21
2014-11-24,68.9,58.9,42.6,54.1,41.3,27.1,80,54,33,29.88,29.38,42,10,42,0.00
2014-11-25,54.0,41.5,29.1,35.4,26.0,21.4,87,57,30,30.00,29.85,13,2,13,0.00
2014-11-26,50.2,40.5,35.1,29.8,24.8,18.7,70,54,32,29.97,29.85,15,2,15,4.69
2014-11-27,37.9,32.5,28.4,32.9,26.4,17.8,97,78,64,30.24,29.85,14,4,14,0.08
2014-11-28,41.0,30.6,22.8,21.2,15.9,12.1,70,55,40,30.24,29.97,11,2,11,0.00
2014-11-29,57.4,43.0,25.9,42.9,28.6,15.3,77,58,38,30.00,29.85,27,5,27,0.00
2014-11-30,64.4,59.0,53.6,49.0,46.1,40.4,71,62,55,30.06,29.88,22,8,23,4.77
2014-12-1,62.2,53.5,39.2,53.3,46.5,38.7,98,79,59,30.27,30.03,19,6,19,0.38
2014-12-2,55.4,47.1,39.2,54.8,46.6,38.7,98,98,97,30.21,30.03,9,2,9,0.37
2014-12-3,53.8,44.9,33.8,53.2,42.0,31.4,98,90,69,30.21,29.97,16,3,16,0.00
2014-12-4,44.1,37.9,32.5,43.5,37.1,31.8,98,97,93,30.21,30.09,10,3,10,5.81
2014-12-5,63.1,53.2,44.2,59.5,51.4,43.7,98,94,80,30.15,30.00,12,2,13,0.25
2014-12-6,57.6,48.7,39.0,57.0,46.1,30.6,98,91,71,30.30,29.88,26,6,26,6.60
2014-12-7,48.4,40.3,36.9,31.5,28.4,25.0,75,63,43,30.36,30.15,21,6,21,0.00
2014-12-8,51.6,41.3,35.1,35.3,28.6,23.7,88,63,37,30.18,30.00,10,2,10,0.00
2014-12-9,42.6,39.2,36.5,36.9,33.2,27.3,93,79,67,30.09,29.94,14,3,14,0.00
2014-12-10,38.3,36.3,33.3,36.5,31.4,20.1,98,83,54,30.09,30.00,11,3,11,0.00
2014-12-11,41.0,32.0,22.8,21.8,18.6,15.2,80,58,41,30.12,29.97,10,3,10,0.00
2014-12-12,45.9,29.5,19.6,29.5,20.4,15.3,85,71,40,30.21,30.09,6,1,8,0.00
2014-12-13,41.5,34.6,23.0,32.4,28.6,18.5,88,79,67,30.18,30.03,6,1,6,0.00
2014-12-14,46.4,40.5,37.0,35.6,32.9,31.1,85,74,62,30.09,29.97,9,2,9,6.60
2014-12-15,55.6,44.3,35.8,43.8,32.3,30.1,80,64,40,29.97,29.74,13,4,13,0.00
2014-12-16,51.1,47.2,42.1,48.7,40.4,33.9,98,78,57,30.03,29.68,20,6,20,6.68
2014-12-17,42.8,36.3,25.2,37.6,29.6,21.8,94,77,53,30.15,29.97,15,3,15,0.00
2014-12-18,40.5,32.0,23.9,29.7,24.3,21.1,90,74,55,30.09,30.00,10,1,10,0.00
2014-12-19,43.3,34.8,28.2,25.8,23.4,20.4,74,63,45,30.09,30.03,7,2,8,0.00
2014-12-20,44.6,33.6,24.4,27.1,22.8,0.0,81,65,45,30.12,30.00,7,2,7,0.00
2014-12-21,48.2,32.7,20.3,30.0,23.3,16.2,89,70,42,30.12,29.91,8,1,8,6.68
2014-12-22,60.3,41.3,32.5,45.2,33.0,25.9,85,73,48,29.94,29.62,17,1,17,0.00
2014-12-23,60.6,54.3,49.5,55.5,51.8,44.8,98,92,73,29.74,29.62,15,3,15,0.99
2014-12-24,63.9,52.3,40.5,57.7,49.4,37.0,98,90,62,29.71,29.38,24,6,28,0.17
2014-12-25,47.8,38.7,27.9,39.5,32.2,25.8,95,78,54,30.09,29.71,17,4,17,0.00
2014-12-26,54.9,38.4,23.5,39.8,28.3,21.8,94,71,37,30.18,30.06,13,2,13,0.00
2014-12-27,63.3,48.9,38.7,43.6,35.4,29.9,87,63,30,30.15,29.94,10,2,10,0.12
2014-12-28,48.2,44.4,38.5,47.7,43.3,38.0,98,96,87,30.00,29.88,8,1,10,8.55
2014-12-29,39.9,37.2,34.7,38.2,35.8,29.4,98,95,80,30.09,29.97,12,4,12,8.63
2014-12-30,40.6,31.8,22.6,29.6,22.2,15.1,81,68,47,30.36,30.09,13,4,13,0.00
2014-12-31,34.5,26.1,20.1,20.2,15.6,11.5,82,65,43,30.39,30.21,8,2,8,0.00
2015-1-1,39.2,27.9,18.1,24.5,17.1,13.6,85,66,39,30.21,30.03,15,2,15,0.00
2015-1-2,45.1,40.1,36.9,36.5,27.9,21.3,82,62,48,30.21,30.06,10,2,12,0.00